Starlink 11227

operational
NORAD ID: 60303 Int'l Des: 2024-133 Owner: SPXS Country: US Constellation: starlink
LEOCIRCULAR

Über Starlink 11227

Beschreibung wird geladen...

Live-Position

3D-Globus wird geladen...

Nächste Überflüge

Höhenverlauf

Altitude vs Time

uPlot chart will show altitude changes over time

Zweizeiliger Elementsatz

1 60303U 24133C 25304.63803198 -.00013024 00000-0 -10278-3 0 9990
2 60303 53.1576 62.5111 0000742 64.1774 295.9321 15.69718420 73542
Epoch: 31. Okt. 2025 • Age: 24 hours

Aktueller Status

Höhe 373.7 km
Geschwindigkeit 7.68 km/s
Subsatellitenpunkt -41.19°S, 102.75°E
Startdatum 28. Juli 2024
Alter 1.2 years
Typ internet

Technische Details

Klassifizierung Payload
Masse 960.00 kg
Trockenmasse 910.00 kg
Gesamtmasse 960.00 kg
Länge 0.30 m
Durchmesser 4.10 m
Spannweite 29.00 m
Form Box + pan
Hersteller SPXS
Bus-Typ Starlink V2MD
Phasenstatus In Orbit
Besitzer/Staat SPXS/US

Große Konstellationen

Loading constellations...